Weather History for KFHU - October, 2011

Change the Weather History Date:

Wednesday, October 19, 2011

  Actual Average Record
Temperature  
Mean Temperature 71 °F -  
Max Temperature 87 °F 75 °F 87 °F (2011)
Min Temperature 55 °F 53 °F 41 °F (2006)
Cooling Degree Days 6    
Growing Degree Days 21 (Base 50)    
Moisture  
Dew Point 26 °F    
Average Humidity 19    
Maximum Humidity 31    
Minimum Humidity 10    
Precipitation  
Precipitation 0.00 in - - ()
Sea Level Pressure  
Sea Level Pressure 29.91 in    
Wind  
Wind Speed 7 mph (SSW)    
Max Wind Speed 15 mph    
Max Gust Speed -    
Visibility 10 miles    
Events      
Averages and records for this station are not official NWS values.
T = Trace of Precipitation, MM = Missing Value Source: NWS Daily Summary

Daily Weather History Graph

Daily Weather History Graph

Search for Another Location

Airport or City:

Trip Planner

Search our weather history database for the weather conditions in past years. The results will help you decide how hot, cold, wet, or windy it might be!

Date:

Astronomy

Oct. 19, 2011 Rise Set
Actual Time 6:27 AM MST 5:45 PM MST
Civil Twilight 6:02 AM MST 6:09 PM MST
Nautical Twilight 5:34 AM MST 6:37 PM MST
Astronomical Twilight 5:06 AM MST 7:06 PM MST
Moon 11:42 PM MST (10/19) 12:50 PM MST (10/19)
Length of Visible Light 12h 07m
Length of Day
11h 17m
Waning Gibbous, 54% of the Moon is Illuminated
Oct 19
Waning Gibbous
Oct 19
Last Quarter
Oct 26
New
Nov 2
First Quarter
Nov 10
Full

Hourly Weather History & Observations

Time (MST) Temp. Dew Point Humidity Pressure Visibility Wind Dir Wind Speed Gust Speed Precip Events Conditions
12:56 AM 64.9 °F 26.1 °F 23% 29.92 in 10.0 mi South 11.5 mph - N/A   Clear
1:56 AM 63.0 °F 26.1 °F 25% 29.92 in 10.0 mi South 10.4 mph - N/A   Clear
2:56 AM 59.0 °F 25.0 °F 27% 29.93 in 10.0 mi ENE 3.5 mph - N/A   Clear
3:56 AM 57.0 °F 25.0 °F 29% 29.94 in 10.0 mi Calm Calm - N/A   Clear
4:56 AM - - N/A% - - North - - N/A   Unknown
5:00 AM - - N/A% - - North - - N/A   Unknown
5:55 AM 55.4 °F 24.8 °F 31% 29.97 in 10.0 mi Calm Calm - N/A   Clear
6:55 AM 55.4 °F 24.8 °F 31% 29.99 in 10.0 mi Calm Calm - N/A   Clear
7:55 AM 60.8 °F 26.6 °F 27% 30.00 in 10.0 mi Variable 4.6 mph - N/A   Clear
8:55 AM 69.8 °F 28.4 °F 21% 29.97 in 10.0 mi ESE 9.2 mph - N/A   Clear
10:55 AM 75.2 °F 28.4 °F 18% 29.95 in 10.0 mi Variable 5.8 mph - N/A   Clear
11:55 AM 80.6 °F 26.6 °F 14% 29.92 in 10.0 mi ESE 9.2 mph - N/A   Clear
12:55 PM 80.6 °F 26.6 °F 14% 29.88 in 10.0 mi Variable 3.5 mph - N/A   Clear
1:55 PM 84.2 °F 26.6 °F 12% 29.85 in 10.0 mi Variable 1.2 mph - N/A   Clear
2:55 PM 84.2 °F 26.6 °F 12% 29.84 in 10.0 mi Calm Calm - N/A   Clear
3:55 PM 87.8 °F 24.8 °F 10% 29.83 in 10.0 mi SW 8.1 mph - N/A   Clear
4:55 PM 84.2 °F 24.8 °F 11% 29.84 in 10.0 mi WNW 15.0 mph - N/A   Clear
5:55 PM 75.2 °F 23.0 °F 14% 29.88 in 10.0 mi West 6.9 mph - N/A   Clear
6:55 PM 73.4 °F 24.8 °F 16% 29.89 in 10.0 mi SW 10.4 mph - N/A   Clear
7:55 PM 73.4 °F 23.0 °F 15% 29.90 in 10.0 mi SW 10.4 mph - N/A   Clear
8:55 PM 71.6 °F 23.0 °F 16% 29.89 in 10.0 mi SW 11.5 mph - N/A   Clear
9:55 PM 69.8 °F 24.8 °F 18% 29.90 in 10.0 mi SW 10.4 mph - N/A   Clear
10:55 PM 69.8 °F 24.8 °F 18% 29.90 in 10.0 mi SW 10.4 mph - N/A   Clear
11:56 PM 68.0 °F 27.0 °F 21% 29.90 in 10.0 mi WSW 10.4 mph - N/A   Clear